DW9572 Weather Reports


Display with metric or nautical units.
time (UTC)temp
F
wind
direction
speed
MPH
gust
MPH
rain 1hr
in
rain 24hr
in
rain mn
in
humidity
%
barometer
mb
20260510230020 79 198 16.0 21.0 0.00 0.00 0.00 32 1011.8
20260510224527 79 226 11.0 17.0 0.00 0.00 0.00 33 1012.0
20260510223057 79 205 13.0 18.0 0.00 0.00 0.00 31 1012.0
20260510221556 80 239 7.0 16.0 0.00 0.00 0.00 30 1012.0
20260510220046 79 193 9.0 14.0 0.00 0.00 0.00 31 1012.1
20260510214535 79 220 14.0 17.0 0.00 0.00 0.00 30 1012.1
20260510213016 79 259 7.0 18.0 0.00 0.00 0.00 29 1012.5
20260510211516 78 184 7.0 15.0 0.00 0.00 0.00 30 1012.6
20260510210107 77 190 9.0 16.0 0.00 0.00 0.00 31 1012.6
20260510204550 77 244 11.0 19.0 0.00 0.00 0.00 32 1012.7
20260510203038 76 271 9.0 19.0 0.00 0.00 0.00 32 1012.7
20260510201527 75 215 7.0 12.0 0.00 0.00 0.00 37 1012.7
20260510200005 74 166 6.0 11.0 0.00 0.00 0.00 41 1012.8
20260510194503 73 148 5.0 8.0 0.00 0.00 0.00 39 1013.0
20260510193058 72 148 4.0 8.0 0.00 0.00 0.00 39 1013.1
20260510191542 71 106 5.0 8.0 0.00 0.00 0.00 41 1013.3
20260510190028 71 113 0.0 6.0 0.00 0.00 0.00 43 1013.3
20260510184521 70 101 2.0 7.0 0.00 0.00 0.00 46 1013.7
20260510183003 72 149 0.0 0.0 0.00 0.00 0.00 42 1013.8
20260510181615 70 118 0.0 0.0 0.00 0.00 0.00 46 1013.9
20260510180048 69 99 0.0 0.0 0.00 0.00 0.00 47 1013.6
20260510174536 67 60 0.0 1.0 0.00 0.00 0.00 47 1013.8
20260510173014 66 115 1.0 4.0 0.00 0.00 0.00 50 1014.1
20260510171512 65 106 0.0 5.0 0.00 0.00 0.00 51 1014.2
20260510170101 65 117 0.0 4.0 0.00 0.00 0.00 52 1014.1
20260510164557 63 172 0.0 0.0 0.00 0.00 0.00 55 1014.3
20260510163035 63 142 0.0 1.0 0.00 0.00 0.00 57 1014.1
20260510161530 62 143 2.0 4.0 0.00 0.00 0.00 56 1014.3
20260510160013 62 150 2.0 5.0 0.00 0.00 0.00 55 1014.4
20260510154512 63 84 0.0 0.0 0.00 0.00 0.00 51 1014.3
20260510153053 62 179 0.0 0.0 0.00 0.00 0.00 54 1014.5
20260510151548 60 191 3.0 6.0 0.00 0.00 0.00 57 1014.6
20260510150026 59 190 0.0 4.0 0.00 0.00 0.00 65 1014.4
20260510144526 56 218 2.0 4.0 0.00 0.00 0.00 64 1014.5
20260510143100 55 227 3.0 5.0 0.00 0.00 0.00 66 1014.5
20260510141559 54 276 0.0 0.0 0.00 0.00 0.00 72 1014.5
20260510140044 54 111 0.0 0.0 0.00 0.00 0.00 71 1014.4
20260510134537 54 99 0.0 7.0 0.00 0.00 0.00 67 1014.5
20260510133017 54 267 6.0 8.0 0.00 0.00 0.00 64 1014.2
20260510131515 53 266 2.0 5.0 0.00 0.00 0.00 62 1014.2
20260510130058 52 274 4.0 7.0 0.00 0.00 0.00 64 1014.0
20260510124611 54 330 0.0 0.0 0.00 0.00 0.00 60 1014.0
20260510123037 53 293 0.0 0.0 0.00 0.00 0.00 62 1013.9
20260510121534 53 298 1.0 3.0 0.00 0.00 0.00 65 1014.1
20260510120014 52 330 0.0 2.0 0.00 0.00 0.00 68 1014.1
20260510114514 52 1 0.0 1.0 0.00 0.00 0.00 71 1014.1
20260510113102 51 21 0.0 2.0 0.00 0.00 0.00 74 1014.2
20260510111617 50 37 2.0 4.0 0.00 0.00 0.00 77 1014.1
20260510110037 50 124 0.0 2.0 0.00 0.00 0.00 77 1014.2
20260510104547 51 274 0.0 3.0 0.00 0.00 0.00 72 1014.1
20260510103021 51 302 2.0 3.0 0.00 0.00 0.00 76 1014.0
20260510101520 49 217 0.0 4.0 0.00 0.00 0.00 81 1014.1
20260510100109 50 236 4.0 5.0 0.00 0.00 0.00 79 1014.1
20260510094558 49 169 0.0 0.0 0.00 0.00 0.00 76 1014.2
20260510093041 49 169 0.0 0.0 0.00 0.00 0.00 74 1014.2
20260510091549 51 78 0.0 0.0 0.00 0.00 0.00 68 1014.4
20260510090016 51 62 0.0 0.0 0.00 0.00 0.00 75 1014.6
20260510084513 52 62 0.0 0.0 0.00 0.00 0.00 74 1014.6
20260510083101 52 318 0.0 2.0 0.00 0.00 0.00 71 1014.7
20260510081551 53 82 0.0 1.0 0.00 0.00 0.00 64 1014.7
20260510080027 57 82 2.0 8.0 0.00 0.00 0.00 58 1014.8
20260510074529 55 49 0.0 0.0 0.00 0.00 0.00 64 1014.9
20260510073012 55 333 0.0 0.0 0.00 0.00 0.00 63 1014.9
20260510071511 57 297 0.0 0.0 0.00 0.00 0.00 54 1014.9
20260510070052 58 77 0.0 0.0 0.00 0.00 0.00 54 1014.9
20260510064606 58 337 0.0 0.0 0.00 0.00 0.00 54 1014.8
20260510063039 57 44 0.0 0.0 0.00 0.00 0.00 58 1014.8
20260510061543 60 44 0.0 0.0 0.00 0.00 0.00 50 1014.8
20260510060026 62 16 0.0 0.0 0.00 0.00 0.00 46 1014.8
20260510054512 63 337 0.0 0.0 0.00 0.00 0.00 45 1014.9
20260510053114 64 338 0.0 7.0 0.00 0.00 0.00 44 1014.9
20260510051606 67 323 2.0 8.0 0.00 0.00 0.00 40 1014.9
20260510050058 66 326 5.0 7.0 0.00 0.00 0.00 41 1014.9
20260510044540 65 339 3.0 4.0 0.00 0.00 0.00 42 1015.0
20260510043037 70 339 5.0 6.0 0.00 0.00 0.00 35 1015.0
20260510041518 70 331 6.0 7.0 0.00 0.00 0.00 35 1015.1
20260510040021 70 330 7.0 8.0 0.00 0.00 0.00 35 1015.2
20260510034506 70 331 6.0 7.0 0.00 0.00 0.00 35 1015.1
20260510033008 71 340 4.0 6.0 0.00 0.00 0.00 34 1015.0
20260510031508 71 338 3.0 4.0 0.00 0.00 0.00 35 1015.1
20260510030005 71 352 0.0 0.0 0.00 0.00 0.00 34 1015.0
20260510024504 72 53 0.0 0.0 0.00 0.00 0.00 34 1014.8
20260510023003 73 97 0.0 0.0 0.00 0.00 0.00 35 1015.0
20260510021506 73 103 0.0 2.0 0.00 0.00 0.00 36 1015.2
20260510020001 74 117 3.0 7.0 0.00 0.00 0.00 30 1015.1
20260510014542 75 117 5.0 7.0 0.00 0.00 0.00 28 1015.3
20260510013049 75 109 6.0 9.0 0.00 0.00 0.00 27 1015.4
20260510011523 75 108 9.0 11.0 0.00 0.00 0.00 25 1015.5
20260510010019 75 103 8.0 11.0 0.00 0.00 0.00 28 1015.7
20260510004602 75 115 9.0 12.0 0.00 0.00 0.00 30 1015.8
20260510003101 76 93 7.0 12.0 0.00 0.00 0.00 28 1015.9
20260510001540 76 118 9.0 13.0 0.00 0.00 0.00 28 1016.0
20260510000040 76 143 6.0 12.0 0.00 0.00 0.00 28 1016.1
20260509234534 76 148 6.0 10.0 0.00 0.00 0.00 27 1016.1
20260509233034 77 96 4.0 9.0 0.00 0.00 0.00 26 1016.2
20260509231500 77 169 2.0 7.0 0.00 0.00 0.00 27 1016.3